User: anonymous   Login
Location: Newark
(16.3678°N, 77.8722°E)
Time: 06:10:14
(UTC+00:00)
Language:

S-56A Canister/Altair - Orbit

View from above orbital plane
View from above orbital plane
View from above satellite
View from above satellite

Ground track
Ground track

The orbit data is extracted from the following two-line orbital elements,

1    82U 61004B   19340.00663379 -.00000017  00000-0  10945-4 0  9994
2    82  38.8591 198.3682 1174749 225.1596 124.7573 12.26056393783943
Epoch (UTC): 06 December 2019 00:09:33
Eccentricity: 0.1174749
inclination: 38.8591°
perigee height: 633 km
apogee height: 2499 km
right ascension of ascending node: 198.3682°
argument of perigee: 225.1596°
revolutions per day: 12.26056393
mean anomaly at epoch: 124.7573°
orbit number at epoch: 78394

The dashed part of the orbit path shows where the satellite is in the earth's shadow,  

DLR